This demonstration page uses our WeatherBlox Daily Observations layout. Learn more.

40.92945, -100.16068

Hourly Observations for December 24, 2016

Temp ( °F °C ) Dew Point ( °F °C ) Humidity (%) Winds ( mph kmh ) Pressure ( in mb ) Visibility ( mi km ) Precip ( " mm )
12:15 am 00:15 Clear 11 -11.7 6 -14.4 81 81 Calm 30.24 1024 10 16.0934 N/A
12:35 am 00:35 Clear 11 -11.4 6 -14.2 80 80 WNW 3 6 30.24 1024 10 16.0934 N/A
12:55 am 00:55 Clear 9 -12.8 5 -15.1 83 83 Calm 30.24 1024 10 16.0934 N/A
1:15 am 01:15 Clear 9 -13 4 -15.4 82 82 NW 6 9 30.24 1024 10 16.0934 N/A
1:35 am 01:35 Clear 9 -13 5 -15.1 84 84 N 7 11 30.21 1023 10 16.0934 N/A
1:55 am 01:55 Clear 9 -12.8 4 -15.3 82 82 NNW 5 7 30.21 1023 10 16.0934 N/A
2:15 am 02:15 Clear 10 -12.1 6 -14.5 83 83 NW 6 9 30.21 1023 10 16.0934 N/A
2:35 am 02:35 Clear 9 -12.7 4 -15.4 80 80 Calm 30.21 1023 10 16.0934 N/A
2:55 am 02:55 Clear 8 -13.1 4 -15.7 81 81 Calm 30.21 1023 10 16.0934 N/A
3:15 am 03:15 Clear 8 -13.3 4 -15.8 82 82 SW 7 11 30.21 1023 10 16.0934 N/A
3:35 am 03:35 Clear 9 -13 4 -15.3 83 83 WNW 12 19 30.24 1024 10 16.0934 N/A
3:55 am 03:55 Clear 12 -11.2 7 -13.8 81 81 WNW 6 9 30.24 1024 10 16.0934 N/A
4:15 am 04:15 Clear 12 -11.1 7 -13.9 80 80 Calm 30.24 1024 10 16.0934 N/A
4:35 am 04:35 Clear 9 -12.7 4 -15.7 78 78 WNW 6 9 30.24 1024 10 16.0934 N/A
4:55 am 04:55 Clear 8 -13.3 3 -16.1 80 80 WNW 3 6 30.24 1024 10 16.0934 N/A
5:15 am 05:15 Clear 7 -14 2 -16.7 80 80 Calm 30.24 1024 10 16.0934 N/A
5:35 am 05:35 Clear 9 -12.9 4 -15.7 80 80 Calm 30.21 1023 10 16.0934 N/A
5:55 am 05:55 Clear 9 -12.9 4 -15.5 81 81 W 5 7 30.24 1024 10 16.0934 N/A
6:15 am 06:15 Clear 10 -12.4 5 -14.8 82 82 Calm 30.24 1024 10 16.0934 N/A
6:35 am 06:35 Clear 11 -11.8 6 -14.3 82 82 Calm 30.24 1024 10 16.0934 N/A
6:55 am 06:55 Clear 10 -12 6 -14.3 83 83 WNW 8 13 30.27 1025 10 16.0934 N/A
7:15 am 07:15 Clear 12 -11.1 7 -13.7 81 81 WNW 6 9 30.27 1025 10 16.0934 N/A
7:35 am 07:35 Clear 11 -11.5 7 -14.1 81 81 Calm 30.27 1025 10 16.0934 N/A
7:55 am 07:55 Clear 9 -12.6 5 -14.9 83 83 Calm 30.27 1025 10 16.0934 N/A
8:15 am 08:15 Sunny 11 -11.6 7 -14 83 83 ESE 3 6 30.27 1025 10 16.0934 N/A
8:35 am 08:35 Sunny 12 -10.9 8 -13.6 81 81 E 5 7 30.24 1024 10 16.0934 N/A
8:55 am 08:55 Sunny 14 -10.2 9 -13 80 80 WSW 3 6 30.21 1023 10 16.0934 N/A
9:15 am 09:15 Sunny 16 -8.8 11 -11.8 79 79 SE 3 6 30.21 1023 10 16.0934 N/A
9:35 am 09:35 Sunny 20 -6.9 14 -10.1 78 78 Calm 30.18 1022 10 16.0934 N/A
9:55 am 09:55 Sunny 24 -4.7 16 -9 72 72 ESE 5 7 30.15 1021 10 16.0934 N/A
10:15 am 10:15 Sunny 28 -2.4 18 -7.7 67 67 SW 3 6 30.18 1022 10 16.0934 N/A
10:35 am 10:35 Sunny 30 -1 19 -7.3 63 63 Calm 30.15 1021 10 16.0934 N/A
10:55 am 10:55 Sunny 32 0.1 20 -6.6 61 61 Calm 30.15 1021 10 16.0934 N/A
11:15 am 11:15 Sunny 35 1.9 22 -5.6 58 58 SE 6 9 30.12 1020 10 16.0934 N/A
11:35 am 11:35 Sunny 40 4.2 24 -4.2 55 55 SSE 14 22 30.06 1018 10 16.0934 N/A
11:55 am 11:55 Sunny 42 5.5 25 -3.8 52 52 SSE 14 22 30.06 1018 10 16.0934 N/A
12:15 pm 12:15 Sunny 43 5.9 26 -3.5 51 51 S 13 20 30.06 1018 10 16.0934 N/A
12:35 pm 12:35 Sunny 43 6.2 26 -3.1 52 52 SSE 12 19 30.03 1017 10 16.0934 N/A
12:55 pm 12:55 Sunny 43 6.2 26 -3.1 52 52 SSE 14 22 30.03 1017 10 16.0934 N/A
1:15 pm 13:15 Sunny 44 6.9 27 -2.6 51 51 SSE 15 24 30 1016 10 16.0934 N/A
1:35 pm 13:35 Sunny 45 7.1 28 -2.5 51 51 SSE 10 17 29.97 1015 10 16.0934 N/A
1:55 pm 13:55 Sunny 45 7.4 28 -2.5 50 50 SE 13 20 29.97 1015 10 16.0934 N/A
2:15 pm 14:15 Sunny 46 7.6 28 -2.2 50 50 SE 10 17 29.97 1015 10 16.0934 N/A
2:35 pm 14:35 Sunny 46 7.6 28 -2.2 50 50 SE 12 19 29.94 1014 10 16.0934 N/A
2:55 pm 14:55 Sunny 45 7.4 29 -1.5 54 54 SE 14 22 29.94 1014 10 16.0934 N/A
3:15 pm 15:15 Sunny 45 7.4 31 -0.6 57 57 SE 14 22 29.94 1014 10 16.0934 N/A
3:35 pm 15:35 Sunny 45 7.3 32 0 60 60 SE 13 20 29.94 1014 10 16.0934 N/A
3:55 pm 15:55 Sunny 45 7.3 32 0.1 61 61 SE 10 17 29.94 1014 10 16.0934 N/A
4:15 pm 16:15 Sunny 45 7 32 0 61 61 SE 12 19 29.94 1014 10 16.0934 N/A
4:35 pm 16:35 Sunny 44 6.5 32 -0.1 63 63 SSE 10 17 29.94 1014 10 16.0934 N/A
4:55 pm 16:55 Sunny 42 5.7 31 -0.5 65 65 SSE 10 17 29.97 1015 10 16.0934 N/A
5:15 pm 17:15 Sunny 41 5 32 -0.2 69 69 SE 9 15 29.97 1015 10 16.0934 N/A
5:35 pm 17:35 Clear 39 3.9 31 -0.3 74 74 SE 7 11 29.97 1015 10 16.0934 N/A
5:55 pm 17:55 Clear 37 2.5 31 -0.8 79 79 ESE 7 11 30 1016 10 16.0934 N/A
6:15 pm 18:15 Clear 36 2.3 31 -0.7 81 81 ESE 8 13 30 1016 10 16.0934 N/A
6:35 pm 18:35 Clear 35 1.5 30 -1.1 83 83 ESE 7 11 30 1016 10 16.0934 N/A
6:55 pm 18:55 Clear 33 0.7 29 -1.5 85 85 ESE 8 13 30 1016 10 16.0934 N/A
7:15 pm 19:15 Clear 34 1.2 30 -1.1 85 85 SE 13 20 30 1016 10 16.0934 N/A
7:35 pm 19:35 Clear 35 1.4 29 -1.4 82 82 SE 10 17 30 1016 10 16.0934 N/A
7:55 pm 19:55 Clear 34 0.9 29 -1.6 84 84 SE 9 15 30 1016 10 16.0934 N/A
8:15 pm 20:15 Clear 33 0.7 29 -1.5 85 85 SE 8 13 30 1016 10 16.0934 N/A
8:35 pm 20:35 Clear 33 0.6 29 -1.5 86 86 SE 9 15 29.97 1015 10 16.0934 N/A
8:55 pm 20:55 Clear 32 0.1 29 -1.7 88 88 SE 12 19 29.97 1015 10 16.0934 N/A
9:15 pm 21:15 Clear 32 0 29 -1.6 89 89 SE 12 19 29.97 1015 10 16.0934 N/A
9:35 pm 21:35 Clear 32 0.2 29 -1.5 89 89 SE 12 19 29.97 1015 10 16.0934 N/A
9:55 pm 21:55 Clear 32 0.1 30 -1.3 90 90 SE 10 17 29.97 1015 10 16.0934 N/A
10:15 pm 22:15 Clear 32 0.2 30 -1.2 90 90 SE 12 19 29.94 1014 10 16.0934 N/A
10:35 pm 22:35 Clear 32 0 29 -1.4 90 90 SE 7 11 29.97 1015 10 16.0934 N/A
10:55 pm 22:55 Clear 32 0 29 -1.4 90 90 ESE 10 17 29.97 1015 10 16.0934 N/A
11:10 pm 23:10 Clear 32 0 30 -1.2 92 92 SE 13 20 29.97 1015 7 11.26538 N/A
11:35 pm 23:35 Clear 32 0 30 -1.2 92 92 ESE 10 17 29.94 1014 7 11.26538 N/A
11:55 pm 23:55 Clear 32 0 30 -1.1 92 92 SE 10 17 29.94 1014 7 11.26538 N/A

Powered by AerisWeather